Regional Weather Roundup
Issued by NWS

Home | Current Version | Previous Version | Graphics & Text | Print | Product List | Glossary On
Versions: 1 2 3 4 5 6 7 8 9 10 11 12 13 14 15 16 17 18 19 20 21 22 23 24 25 26 27 28 29 30 31 32 33 34 35 36 37 38 39 40 41 42 43 44 45 46 47 48 49 50
000
ASUS43 KMKX 311721
RWRWI

WISCONSIN REGIONAL WEATHER ROUNDUP
NATIONAL WEATHER SERVICE MILWAUKEE/SULLIVAN WI
1200 PM CDT MON AUG 31 2015

NOTE: "FAIR" INDICATES FEW OR NO CLOUDS BELOW 12,000 FEET WITH NO
SIGNIFICANT WEATHER AND/OR OBSTRUCTIONS TO VISIBILITY.

WIZ001-002-006>008-014>016-023>028-311800-
NORTHWEST WISCONSIN

CITY           SKY/WX    TMP DP  RH WIND       PRES   REMARKS
SUPERIOR ARPT  SUNNY     77  67  69 SW14      29.87F
ASHLAND        SUNNY     78  67  68 S12G22    29.91F HX  80
HAYWARD        CLOUDY    72  64  76 SW13G23   29.97F
SIREN          MOSUNNY   78  67  68 S12       29.93S HX  80
CUMBERLAND     CLOUDY    72  66  83 S10       29.97F
RICE LAKE      CLOUDY    71  66  84 S9        29.99F
CHETEK         CLOUDY   N/A N/A N/A S6        29.99F
LADYSMITH      CLOUDY    70  66  87 S10       30.02F
EAU CLAIRE     CLOUDY    73  67  81 S8        29.99S
MENOMONIE      CLOUDY    75  69  82 S10       29.98F
NEW RICHMOND   CLOUDY    75  70  83 S8        29.96F
OSCEOLA        CLOUDY    75  73  91 S10       29.97S
$$

WIZ003>005-009-010-017-018-311800-
NORTH CENTRAL WISCONSIN

CITY           SKY/WX    TMP DP  RH WIND       PRES   REMARKS
MANITOWISH WTR SUNNY     74  65  75 S12       29.99F
ARBOR VITAE    SUNNY     77  68  72 S10       30.01S
WOODRUFF       SUNNY     77  68  72 S10       30.01S
RHINELANDER    PTSUNNY   72  64  76 SW10      30.04S
EAGLE RIVER    SUNNY     75  62  64 SW9       30.01S
LAND O LAKES   SUNNY     77  62  58 S7        30.00F
PHILLIPS       CLOUDY    69  65  87 SW9       30.01S
TOMAHAWK       PTSUNNY   72  64  76 CALM      30.04S
MEDFORD        CLOUDY    68  66  93 SW6       30.04S
MERRILL        CLOUDY    70  66  88 SW7       30.04F
$$

WIZ029-030-035-036-043>047-311800-
CENTRAL WISCONSIN

CITY           SKY/WX    TMP DP  RH WIND       PRES   REMARKS
WAUSAU         CLOUDY    68  65  90 SW7       30.03F
MOSINEE        CLOUDY    64  64 100 SW6       30.06  FOG
MARSHFIELD     CLOUDY    71  65  81 SW9       30.05S
STEVENS POINT  CLOUDY    68  65  91 SW7       30.05S FOG
WAUPACA        CLOUDY    74  69  83 SW5       30.05F
WAUTOMA        CLOUDY    75  70  83 VRB6      30.05F
WISC RAPIDS    CLOUDY    72  66  81 S6        30.06S
CAMP DOUGLAS   CLOUDY    75  75 100 S7        30.04S
$$

WIZ011>013-019>022-031-037>040-048>050-311800-
NORTHEAST WISCONSIN

CITY           SKY/WX    TMP DP  RH WIND       PRES   REMARKS
ANTIGO         CLOUDY    71  65  80 W7        30.05S
SHAWANO        CLOUDY    73  66  79 SW6       30.04S
OCONTO         CLOUDY    69  69 100 SW6       30.03S
STURGEON BAY   CLOUDY    68  63  83 W12       30.05F
GREEN BAY      CLOUDY    74  66  76 W9        30.04F
MANITOWOC      MOSUNNY   76  66  71 MISG      30.05F
APPLETON       PTSUNNY   72  68  88 SW7       30.05S
CLINTONVILLE   CLOUDY    70  64  83 W7        30.04F
OSHKOSH        CLOUDY    72  64  76 SW7       30.06S
$$

WIZ032>034-041-042-053>061-311800-
SOUTHWEST WISCONSIN

CITY           SKY/WX    TMP DP  RH WIND       PRES   REMARKS
LA CROSSE      MOSUNNY   76  68  76 S8        30.01S
SPARTA         CLOUDY    75  65  72 S5        30.04F
VIROQUA          N/A     76  70  81 S7        30.05F
BOSCOBEL       MOSUNNY   81  70  69 VRB3      30.04S HX  84
PRAIRIE DU CHI SUNNY     78  68  71 S5        30.03S HX  80
PLATTEVILLE    MOSUNNY   78  73  83 S8        30.06S HX  80
$$

WIZ056-057-062-063-064-067-068-311800-
SOUTH CENTRAL WISCONSIN

CITY           SKY/WX    TMP DP  RH WIND       PRES   REMARKS
REEDSBURG      PTSUNNY   77  70  79 SW5       30.05S
BARABOO/DELLS  MOSUNNY   78  66  68 SW6       30.05F
LONE ROCK      PTSUNNY   79  69  71 SW8       30.05S HX  81
MINERAL POINT  MOSUNNY   79  70  73 S9        30.07S HX  81
MADISON        PTSUNNY   77  67  71 S9        30.06S
MIDDLETON      PTSUNNY   80  68  66 SW8       30.06F HX  83
WATERTOWN      CLOUDY    75  71  86 S3        30.07S
MONROE         MOSUNNY   77  68  73 S7        30.07S
JANESVILLE     MOSUNNY   79  68  69 VRB3      30.06F HX  81
$$

WIZ051-052-058>065-066-070>072-311800-
SOUTHEAST WISCONSIN

CITY           SKY/WX    TMP DP  RH WIND       PRES   REMARKS
MILWAUKEE      CLOUDY    75  66  73 VRB3      30.08S
WAUKESHA       CLOUDY    72  64  78 W6        30.10S
MILWAUKEE/TIMM CLOUDY    73  63  68 W6        30.08F
RACINE         PTSUNNY   77  66  68 VRB7      30.10S
BURLINGTON     PTSUNNY   76  65  69 SW5       30.08S
KENOSHA        MOSUNNY   78  68  71 VRB3      30.09S HAZE    HX  80
FOND DU LAC    CLOUDY    73  65  75 W5        30.07S
SHEBOYGAN      MOSUNNY   75  66  73 SW8       30.06S
WEST BEND      CLOUDY    72  63  73 SW3       30.08S
JUNEAU         CLOUDY    73  65  78 S3        30.08F
$$

LSZ147-162-311800-
LAKE SUPERIOR

STATION/POSITION TIME  TEMP    WIND        PRES    WAVE
                       AIR SEA DIR/SP/G            HT/PER
                 (UTC) (F)     (DEG/KT/KT) (MB)    (FT/S)
W MID LAKE BUOY  1650   60 56  180/  6/  6 1012.4F   1
DEVILS ISLAND    1700   67     330/  3/  4 1012.0F
PORT WING        1600   75     210/ 10/ 16 1012.5R
SAXON HARBOR     1640   78     210/ 11/ 16 1012.2S
$$

LMZ867-665-643>646-311800-
LAKE MICHIGAN

STATION/POSITION TIME  TEMP    WIND        PRES    WAVE
                       AIR SEA DIR/SP/G            HT/PER
                 (UTC) (F)     (DEG/KT/KT) (MB)    (FT/S)
CHAMBERS ISLAND  1600   66     190/  4/  8 1016.6S
S GREEN BAY BUOY 1700   65 63  220/  6/  8 1018.4F
N MID LAKE BUOY  1650   63 65  210/ 14/ 16 1016.3R   2/ 4
NORTHPORT PIER   1600   66     220/  5/  9 1016.6R
KEWAUNEE LAKESHO 1600   53     160/  4/  6 1016.3R
SHEBOYGAN LAKESH 1700   67     170/ 18/ 19 1017.8F
PORT WASHINGTON  1640   60     170/  4/  6 1019.0R
ATWATER BUOY     1600   57 49  150/  4/  6 1020.0R
MILWAUKEE LAKESH 1610   64     140/  8/  9   N/A
S MID LAKE BUOY  1650   67 71  220/  2/  4 1018.6F   0
KENOSHA   LAKESH 1700   65     150/  7/  8 1018.3F
$$

TC  - TEMPERATURE IN CELSIUS
VSB - VISIBILITY IN STATUTE MILES
WCI - WIND CHILL INDEX
HX  - HEAT INDEX




USA.gov is the U.S. government's official web portal to all federal, state and local government web resources and services.